Total_Precipitation_Accumulation
0.71 0.70 0.74 0.75 0.78 0.80 0.84 0.82 0.84 0.87 0.89 0.85 0.79 0.69 0.59 0.53 0.49 0.47 0.51 0.59 0.58 0.53 0.55 0.52 0.49 0.50 0.52 0.53 0.54 0.56 0.72 0.86 0.82 0.85 0.76 0.58 0.41 0.31 0.24 0.20 0.15 0.10 0.08
0.71 0.70 0.73 0.75 0.74 0.71 0.70 0.67 0.65 0.65 0.65 0.63 0.60 0.59 0.59 0.53 0.46 0.40 0.36 0.36 0.40 0.41 0.45 0.48 0.50 0.56 0.56 0.49 0.50 0.55 0.71 0.88 0.97 1.11 1.21 0.96 0.69 0.48 0.41 0.30 0.18 0.12 0.13
0.65 0.70 0.74 0.73 0.69 0.69 0.70 0.69 0.65 0.60 0.56 0.52 0.47 0.45 0.45 0.48 0.47 0.44 0.39 0.34 0.31 0.29 0.34 0.43 0.45 0.45 0.47 0.46 0.50 0.56 0.63 0.73 0.86 1.00 1.18 1.01 0.84 0.62 0.60 0.48 0.33 0.31 0.19
0.56 0.69 0.80 0.85 0.84 0.82 0.74 0.72 0.68 0.61 0.56 0.48 0.42 0.37 0.34 0.34 0.33 0.31 0.30 0.27 0.22 0.19 0.21 0.26 0.29 0.29 0.33 0.37 0.39 0.47 0.54 0.57 0.62 0.72 0.88 0.97 1.01 0.95 0.89 0.78 0.66 0.56 0.43
0.55 0.75 0.85 0.82 0.75 0.71 0.67 0.68 0.64 0.55 0.48 0.40 0.33 0.31 0.30 0.26 0.22 0.18 0.16 0.14 0.13 0.13 0.12 0.12 0.10 0.12 0.15 0.19 0.24 0.33 0.41 0.49 0.55 0.64 0.77 0.92 1.02 1.07 1.00 0.99 0.90 0.83 0.69
0.49 0.59 0.62 0.65 0.65 0.59 0.54 0.50 0.47 0.44 0.38 0.32 0.27 0.25 0.21 0.16 0.12 0.08 0.06 0.06 0.07 0.07 0.07 0.06 0.04 0.04 0.05 0.08 0.10 0.13 0.19 0.29 0.44 0.62 0.76 0.93 0.99 0.97 1.10 1.09 1.06 1.02 0.95
0.39 0.43 0.49 0.57 0.58 0.49 0.41 0.42 0.42 0.35 0.29 0.24 0.20 0.16 0.11 0.07 0.05 0.03 0.03 0.04 0.03 0.02 0.02 0.02 0.01 0.00 0.01 0.03 0.06 0.11 0.11 0.11 0.16 0.38 0.57 0.64 0.65 0.64 0.84 1.04 1.03 1.04 1.13
0.38 0.43 0.46 0.54 0.53 0.45 0.41 0.39 0.35 0.29 0.23 0.18 0.16 0.12 0.08 0.04 0.03 0.02 0.02 0.03 0.02 0.01 0.01 0.00 0.00 0.00 0.00 0.01 0.04 0.09 0.06 0.04 0.06 0.14 0.19 0.20 0.25 0.34 0.50 0.76 0.98 0.98 1.07
0.35 0.42 0.48 0.53 0.48 0.42 0.38 0.32 0.27 0.25 0.19 0.13 0.13 0.11 0.07 0.03 0.01 0.01 0.01 0.04 0.03 0.01 0.00 0.00 0.00 0.00 0.00 0.00 0.05 0.08 0.06 0.03 0.01 0.02 0.04 0.06 0.10 0.13 0.21 0.37 0.60 0.90 1.18
0.40 0.45 0.49 0.49 0.46 0.41 0.36 0.29 0.23 0.22 0.19 0.13 0.11 0.10 0.07 0.03 0.00 0.00 0.01 0.03 0.04 0.02 0.01 0.00 0.00 0.00 0.00 0.00 0.02 0.05 0.04 0.03 0.02 0.03 0.04 0.04 0.06 0.08 0.08 0.16 0.29 0.53 0.83
0.37 0.43 0.49 0.51 0.42 0.37 0.33 0.28 0.23 0.20 0.20 0.17 0.12 0.10 0.09 0.04 0.01 0.00 0.00 0.02 0.02 0.01 0.01 0.00 0.00 0.00 0.00 0.00 0.00 0.00 0.00 0.00 0.02 0.03 0.04 0.05 0.05 0.05 0.04 0.06 0.11 0.21 0.37
0.34 0.39 0.46 0.49 0.36 0.29 0.31 0.28 0.24 0.23 0.23 0.20 0.17 0.13 0.10 0.07 0.03 0.01 0.00 0.00 0.00 0.02 0.01 0.00 0.00 0.00 0.00 0.00 0.00 0.00 0.00 0.00 0.02 0.03 0.03 0.03 0.04 0.04 0.04 0.03 0.07 0.11 0.19
0.34 0.42 0.43 0.44 0.44 0.40 0.32 0.28 0.25 0.23 0.24 0.22 0.20 0.18 0.15 0.13 0.10 0.04 0.01 0.00 0.00 0.02 0.01 0.01 0.01 0.01 0.00 0.00 0.00 0.00 0.00 0.01 0.01 0.02 0.03 0.03 0.03 0.03 0.03 0.05 0.06 0.08 0.11
0.35 0.43 0.46 0.47 0.47 0.44 0.40 0.36 0.32 0.28 0.27 0.26 0.24 0.21 0.18 0.17 0.15 0.12 0.09 0.04 0.02 0.01 0.02 0.01 0.01 0.01 0.01 0.01 0.01 0.01 0.00 0.01 0.01 0.02 0.03 0.04 0.03 0.03 0.03 0.04 0.06 0.08 0.10
0.32 0.42 0.49 0.50 0.49 0.46 0.39 0.36 0.35 0.34 0.29 0.29 0.27 0.22 0.18 0.17 0.15 0.12 0.11 0.08 0.05 0.03 0.03 0.03 0.02 0.02 0.02 0.03 0.02 0.01 0.01 0.01 0.02 0.02 0.02 0.04 0.05 0.05 0.04 0.04 0.05 0.08 0.11
0.28 0.31 0.35 0.37 0.38 0.38 0.32 0.21 0.15 0.13 0.11 0.11 0.12 0.12 0.11 0.08 0.06 0.05 0.06 0.06 0.05 0.05 0.05 0.06 0.06 0.05 0.04 0.03 0.03 0.02 0.03 0.02 0.03 0.03 0.04 0.04 0.05 0.05 0.05 0.05 0.05 0.06 0.08
0.15 0.16 0.18 0.19 0.21 0.22 0.23 0.19 0.12 0.07 0.04 0.03 0.03 0.02 0.02 0.02 0.02 0.02 0.02 0.03 0.04 0.04 0.06 0.09 0.10 0.08 0.06 0.04 0.03 0.03 0.04 0.04 0.04 0.04 0.06 0.07 0.07 0.06 0.07 0.06 0.06 0.07 0.09
0.12 0.07 0.08 0.11 0.11 0.11 0.11 0.11 0.08 0.06 0.03 0.01 0.00 0.00 0.00 0.00 0.00 0.00 0.00 0.01 0.02 0.02 0.04 0.08 0.11 0.11 0.08 0.06 0.04 0.03 0.03 0.03 0.03 0.04 0.06 0.06 0.06 0.07 0.08 0.08 0.06 0.06 0.08
0.15 0.07 0.03 0.04 0.05 0.04 0.04 0.05 0.04 0.03 0.02 0.01 0.01 0.00 0.00 0.00 0.00 0.00 0.00 0.00 0.00 0.01 0.02 0.03 0.05 0.06 0.07 0.07 0.06 0.05 0.04 0.04 0.03 0.03 0.04 0.06 0.06 0.08 0.09 0.11 0.10 0.09 0.08
0.22 0.09 0.05 0.04 0.03 0.02 0.01 0.01 0.01 0.01 0.01 0.00 0.01 0.00 0.00 0.00 0.00 0.00 0.00 0.00 0.00 0.00 0.01 0.01 0.02 0.02 0.03 0.04 0.05 0.04 0.04 0.04 0.04 0.04 0.04 0.05 0.06 0.08 0.10 0.11 0.12 0.12 0.11
0.24 0.14 0.06 0.03 0.03 0.02 0.01 0.00 0.00 0.00 0.00 0.00 0.00 0.00 0.00 0.00 0.00 0.00 0.00 0.00 0.00 0.00 0.00 0.00 0.01 0.01 0.01 0.02 0.02 0.03 0.03 0.03 0.03 0.03 0.03 0.04 0.05 0.06 0.06 0.08 0.09 0.10 0.11
0.29 0.18 0.08 0.03 0.01 0.01 0.00 0.00 0.00 0.00 0.00 0.00 0.00 0.00 0.00 0.00 0.00 0.00 0.00 0.00 0.00 0.00 0.00 0.00 0.00 0.00 0.00 0.00 0.01 0.02 0.02 0.02 0.02 0.03 0.03 0.03 0.04 0.05 0.06 0.06 0.07 0.08 0.08
0.29 0.21 0.11 0.05 0.01 0.01 0.00 0.00 0.00 0.00 0.00 0.00 0.00 0.00 0.00 0.00 0.00 0.00 0.00 0.00 0.00 0.00 0.00 0.00 0.00 0.00 0.00 0.00 0.00 0.00 0.00 0.00 0.00 0.00 0.01 0.01 0.02 0.03 0.04 0.05 0.06 0.07 0.08
0.28 0.22 0.14 0.07 0.03 0.01 0.00 0.00 0.00 0.00 0.00 0.00 0.00 0.00 0.00 0.00 0.00 0.00 0.00 0.00 0.00 0.00 0.00 0.00 0.00 0.00 0.00 0.00 0.00 0.00 0.00 0.00 0.00 0.00 0.00 0.01 0.01 0.02 0.02 0.03 0.04 0.05 0.06
0.27 0.21 0.15 0.08 0.04 0.01 0.00 0.00 0.00 0.00 0.00 0.00 0.00 0.00 0.00 0.00 0.00 0.00 0.00 0.00 0.00 0.00 0.00 0.00 0.00 0.00 0.00 0.00 0.01 0.01 0.00 0.00 0.00 0.00 0.00 0.01 0.01 0.02 0.02 0.03 0.04 0.04 0.05
0.25 0.19 0.13 0.08 0.05 0.02 0.00 0.00 0.00 0.00 0.00 0.00 0.00 0.00 0.01 0.01 0.01 0.01 0.01 0.01 0.01 0.01 0.01 0.01 0.01 0.01 0.01 0.01 0.02 0.01 0.00 0.00 0.00 0.00 0.01 0.01 0.02 0.02 0.02 0.02 0.02 0.02 0.03